Dewpoint
38 42 45 46 47 47 46 46 45 44 43 43 42 42 41 40 40 40 41 42 43 44 45 45 45 46 46 47 48 45 43 42 37 37 37 39 39 39 38 38 37 36 36
39 42 45 45 45 45 45 45 44 44 43 43 42 42 43 43 44 43 43 42 42 43 43 43 43 44 44 45 45 44 43 42 36 32 35 33 33 36 37 34 32 32 34
41 41 42 42 42 44 45 45 45 44 43 42 42 43 44 44 43 43 42 43 41 42 41 41 41 42 41 43 44 43 42 39 36 33 31 34 33 34 34 33 32 33 32
40 40 39 40 41 41 42 43 44 44 44 45 45 45 45 44 43 42 42 42 41 41 41 41 40 40 41 42 43 42 39 37 35 33 32 32 32 34 32 30 30 32 32
39 39 39 40 41 41 41 42 42 43 46 46 45 45 45 45 43 42 41 41 41 40 40 39 39 40 41 41 43 41 38 36 33 32 31 31 31 31 30 30 29 30 31
39 39 39 39 40 41 42 42 41 42 45 45 44 44 43 44 41 40 41 40 39 38 38 38 39 40 40 40 40 39 38 35 33 32 31 29 29 30 29 29 28 28 26
40 39 39 41 41 41 42 41 41 41 42 44 43 43 42 42 41 40 39 39 38 38 37 37 37 38 38 40 38 38 37 36 34 35 32 32 29 30 29 28 27 27 26
39 39 41 41 41 41 40 40 40 44 44 43 43 42 42 41 40 39 38 38 38 37 37 37 37 36 36 36 38 37 37 36 35 36 34 34 32 31 29 28 27 26 27
39 39 39 40 40 39 39 39 39 42 44 42 43 41 41 41 39 38 37 37 36 36 36 36 36 36 36 38 35 35 35 35 37 38 37 36 34 32 31 28 27 25 25
37 37 39 39 39 39 40 40 40 42 42 40 39 41 40 41 38 38 38 38 36 35 35 34 35 34 34 35 35 34 34 34 34 34 36 36 35 33 31 30 29 27 25
37 39 39 39 40 41 40 39 38 38 36 34 35 35 38 39 38 38 37 38 36 34 34 33 33 33 33 34 34 35 35 34 34 34 34 34 33 33 31 31 30 29 27
35 38 38 38 40 39 38 38 37 36 33 33 33 33 33 34 36 37 37 37 36 34 34 33 33 33 33 33 31 32 32 33 34 33 32 32 32 32 32 31 31 32 32
34 37 36 36 37 37 37 36 34 34 33 33 32 32 32 33 33 36 36 36 35 34 34 33 33 33 33 31 31 31 29 32 33 32 32 32 33 33 32 31 31 30 29
37 36 34 35 36 34 31 32 33 33 33 32 32 32 31 32 32 33 33 34 34 33 33 34 34 32 31 30 30 27 28 30 31 32 32 30 32 32 31 30 30 29 27
39 37 38 37 35 34 33 33 33 33 33 32 32 32 32 31 32 33 33 32 32 32 32 32 31 29 29 29 26 25 25 26 27 26 29 30 30 31 30 30 29 28 27
38 39 38 37 35 34 33 33 34 33 34 34 34 32 32 33 34 34 34 34 33 32 31 30 29 29 28 27 27 25 24 24 25 26 27 29 29 29 28 29 28 29 27
35 37 36 34 33 33 33 33 33 33 34 34 34 34 34 34 34 34 34 33 32 31 29 29 29 29 27 27 27 26 25 25 24 25 25 27 27 28 27 28 28 27 26
34 34 34 34 34 33 33 33 33 32 32 32 33 34 34 34 34 34 33 32 30 29 29 28 27 27 26 25 25 24 23 23 23 23 23 23 25 26 25 26 27 26 26
33 34 34 33 34 33 33 32 32 32 31 31 31 32 32 34 33 33 33 30 29 28 27 26 26 25 25 25 24 24 24 23 22 21 23 24 24 25 24 25 25 23 22
33 33 33 33 33 32 32 32 31 31 31 31 30 30 31 31 30 31 31 31 30 28 28 27 26 25 24 23 23 23 23 23 23 23 23 24 25 25 24 23 23 22 22
32 33 32 32 32 32 32 32 32 31 31 31 31 30 32 31 30 30 30 31 29 27 28 29 28 27 26 25 24 24 24 25 25 25 24 25 26 26 26 25 24 23 22
31 32 32 32 32 31 32 32 31 31 31 30 30 30 32 31 31 31 31 31 31 29 29 30 29 28 27 27 26 25 25 24 24 24 24 24 24 25 26 26 24 23 23
30 31 32 32 32 32 31 31 31 31 30 31 30 29 29 31 31 31 32 32 31 30 29 29 29 29 30 30 30 29 27 26 26 25 24 23 23 24 25 25 25 25 25
31 31 32 31 31 31 31 30 29 29 28 28 28 29 30 31 32 32 32 32 32 31 31 31 30 30 30 30 30 30 29 29 29 27 26 25 24 24 25 24 25 25 25
30 31 31 30 30 30 30 27 25 25 24 24 23 23 24 26 27 28 28 29 30 29 29 31 32 32 32 31 31 31 31 29 30 29 29 27 26 25 25 25 24 25 25
29 29 29 29 28 27 24 15 15 21 21 20 20 19 20 19 19 19 20 20 19 19 19 20 21 23 24 24 27 30 31 30 30 30 29 29 27 26 26 26 25 26 25
Lifted_Index
10 10 9 9 8 8 8 8 8 7 6 5 3 2 2 2 3 4 5 5 5 5 4 4 4 4 4 4 3 3 2 2 3 4 5 8 10 10 10 12 13 14 14
10 10 9 9 8 8 8 8 7 7 6 5 3 2 2 2 2 3 4 4 4 3 3 4 4 5 5 5 4 3 3 3 3 3 5 8 9 10 11 12 13 14 14
10 9 9 9 8 9 8 7 7 6 5 4 3 3 3 2 2 2 2 1 2 2 2 3 5 6 6 6 5 4 4 4 4 4 5 7 9 10 11 12 13 14 15
10 10 9 10 10 9 9 8 7 6 5 4 3 3 3 2 1 0 0 0 1 1 2 4 5 7 7 7 6 5 5 5 5 5 5 7 8 9 10 11 12 14 15
11 11 11 11 11 10 10 8 7 6 5 4 3 3 2 1 0 0 0 1 1 2 3 4 6 7 7 7 7 6 6 6 5 5 6 6 7 8 9 10 11 13 14
11 11 11 11 11 10 10 8 7 5 4 4 3 2 1 0 0 0 1 1 2 2 3 5 6 7 8 8 7 6 6 5 5 5 5 5 6 7 8 9 10 11 12
11 11 11 11 10 10 9 8 6 5 4 4 2 1 0 -0 -0 0 1 1 2 3 3 5 6 7 8 8 8 7 6 5 5 5 5 5 6 7 8 8 9 11 11
10 10 10 10 10 9 8 8 7 5 4 3 2 1 0 0 0 0 1 2 2 3 4 5 7 7 8 8 8 7 6 6 5 5 5 6 6 7 7 8 9 11 12
10 10 10 10 9 9 8 8 7 5 3 2 2 1 1 1 1 1 2 2 3 3 4 5 7 8 8 8 8 7 7 6 6 6 6 7 7 8 8 8 9 10 11
9 9 9 9 9 8 8 7 6 4 2 2 2 2 3 3 3 3 3 3 3 3 4 5 7 8 8 8 8 7 7 7 7 6 7 8 8 8 8 8 9 9 9
9 9 9 8 8 7 7 6 5 3 2 2 3 3 3 3 3 3 3 3 3 3 4 5 7 8 8 8 8 8 8 7 7 7 7 7 8 8 8 8 9 9 9
9 9 8 8 7 6 6 5 4 3 3 3 3 4 4 4 4 3 3 3 3 3 4 5 6 8 8 8 8 8 8 8 7 7 7 7 7 8 8 9 9 10 10
8 8 7 7 6 5 4 4 4 4 4 4 4 4 4 4 4 4 4 4 4 5 5 6 7 8 8 8 8 8 8 8 8 8 7 7 7 8 9 9 10 10 11
7 7 7 6 5 4 3 4 4 4 4 4 4 4 4 4 4 5 5 5 5 6 7 7 8 8 8 8 8 8 9 8 8 8 8 7 8 8 9 10 10 10 11
7 7 6 5 4 3 3 4 4 5 4 4 4 4 4 5 5 5 6 6 7 7 8 8 8 8 8 8 8 9 9 9 9 8 8 8 8 8 9 9 10 10 10
6 6 4 3 3 3 3 4 4 5 5 5 5 5 5 5 6 6 6 7 8 8 8 8 7 7 7 7 8 9 10 10 9 9 9 8 8 8 8 9 9 9 9
5 4 3 2 2 2 3 3 4 4 5 5 5 6 5 6 6 6 7 7 8 8 8 7 7 7 7 8 8 9 10 11 10 10 10 9 9 8 8 8 8 8 9
5 4 3 2 2 2 2 3 3 4 4 5 6 6 6 6 6 6 7 7 7 7 7 7 7 8 8 8 9 10 10 11 11 11 10 10 10 9 9 9 9 9 9
4 4 3 3 2 2 2 2 3 4 4 5 6 6 6 6 6 6 7 7 6 7 7 7 8 8 8 9 9 10 10 11 11 11 11 11 11 11 11 11 11 10 10
4 4 4 3 3 2 2 2 3 4 5 5 6 6 6 6 6 6 6 6 6 7 7 7 8 8 9 9 9 10 10 10 10 11 11 11 12 12 12 12 12 12 12
4 4 4 4 4 3 3 3 4 4 5 6 6 7 7 6 6 6 6 6 6 7 7 8 8 9 9 9 9 9 9 10 10 10 11 12 12 13 13 13 13 13 13
4 4 4 4 4 4 4 4 4 5 5 6 7 7 7 7 6 6 6 6 6 7 7 8 8 8 9 9 9 9 9 9 10 10 10 11 12 13 13 13 13 13 13
4 5 5 5 5 5 5 5 5 6 6 7 7 7 7 7 6 6 6 6 6 7 7 7 8 8 8 9 9 9 9 9 10 10 10 11 11 12 12 12 13 13 13
5 5 5 5 5 5 6 6 6 7 7 7 8 8 7 7 7 6 6 6 7 7 7 7 8 8 8 8 9 9 9 9 10 10 10 10 10 11 11 11 12 13 13
5 5 5 5 5 6 6 6 7 7 7 7 7 8 8 7 7 7 7 7 7 7 8 8 8 8 8 8 9 9 9 10 10 10 10 10 10 10 10 11 11 12 12
5 5 5 5 5 6 6 6 7 7 7 7 7 7 7 7 7 7 7 7 7 8 8 8 8 9 9 9 9 9 9 10 10 10 10 10 10 10 10 11 11 11 11